CZ-6A DEB, 54920

Orbit data source: Space-Track

CZ-6A DEB, 54920 is space debris in SSO originally from a launch on Fri, 11 Nov 2022 UTC launched from the Taiyaun Space Center, China (TSC). Debris objects in space refer to the collection of defunct objects orbiting the Earth. Examples of debris include non-operational satellites, rocket bodies, and fragments generated from explosions, collisions, or faulty payload assembly.

Loading next visibility...
Identifier
54920, 2022-151RH
Orbit
SSO
Country
Flag of CNCN / PRC
Related business
Manufacturer
SAST
Mission
Spacecraft
Bus & Motor
Unknown
Mass
Unknown
Launch date (UTC)
2022-11-11 (3 years ago)
Launch vehicle
Unknown
Launch site
Taiyaun Space Center, China (TSC)
Object type
Payload
Rocket body
Debris
Shape & HBR
Unknown shape, 0.1 m
Radar Cross Section
Small (<0.1 m²)

Expand to show TLE details & history
Last TLE update: 10 hours ago

TLE from 10 hours ago
0 CZ-6A DEB
1 54920U 22151RH  25352.10932620  .00014069  00000-0  21021-2 0  9999
2 54920  98.6406  49.4414 0072343 110.6220 250.2764 14.73090176160553
Epoch: 2025-12-18T02:37Z
TLE epoch observation values (Epoch: 2025-12-18T02:37:25.783Z)
Latitude
-0.00001°
Longitude
-76.88558°
Altitude
671.7 km
Speed
7.512 km/s
True Right ascension
03h 17m 45s
True Declination
0° 00' 00"
Sunlit
Object was in full shadow at epoch
Visualization orbit readout
Latitude
Unknown
Longitude
Unknown
Altitude
Unknown
Speed
Unknown
Apparent Right ascension
Unknown
Apparent Declination
Unknown
Sunlit
N/A
Visualization observer readout
Local Sidereal Time
11:26:07
Azimuth
Unknown
Elevation
Unknown
Doppler factor
Unknown
Orbital elements
Apogee altitude
699.136 km
Perigee altitude
597.473 km
Semi-major axis
7,026.442 km
Eccentricity
0.00723
Inclination
98.6406°
RAAN
49.4414°
Arg. of periapsis
110.622°
True anomaly
249.49844°
Mean anomaly
250.2764°
Eccentric anomaly
249.88718°
Mean motion
3.68502 °/min
Orbital period
97.69 mins
BSTAR
0.0021021
Loading maneuver chart data...
Computing Atmospheric mass density...
Loading historical data...
Loading historical data...
Loading historical data...
Loading historical data...
Loading historical data...
Loading historical data...
Loading historical data...

Documentation

Showing up to 5 results
|